[[{"header":{"parameterUnit":"m.s-1","parameterCategory":1,"la1":30.2991,"la2":30.254,"lo1":-89.0895,"lo2":-89.0444,"dy":0.0017,"dx":0.0017,"nx":28,"ny":28,"refTime":"2023-04-26T15:00:00:Z","depth":0,"parameterNumber":2,"parameterNumberName":"U-component_of_WINDS"},"data":[0,0,0,0,0,0,0,0,0,0,0,0,0,0,0,0,0,0,0,0,0,0,0,0,0,0,0,0,0,0,0,0,0,0,0,0,0,0,0,0,0,0,0,0,0,0,0,0,0,0,0,0,0,0,0,0,0,0,2.6128,2.6128,0,2.6169,2.6169,2.617,2.6155,2.6154,2.6153,2.6152,2.6196,2.6198,2.62,0,0,0,0,0,0,0,0,0,0,0,0,0,2.604,2.6042,2.6128,2.6128,2.6129,2.6169,2.6169,2.617,2.6155,2.6154,2.6153,2.6152,2.6195,2.6198,2.62,0,0,0,0,0,0,0,0,0,0,0,0,0,2.6079,2.6042,2.6128,2.6126,2.6127,2.6168,2.6169,2.617,2.6155,2.6154,2.6152,2.6151,2.6194,2.6197,2.62,2.6247,0,0,2.621,2.6211,0,0,0,0,0,0,0,0,2.6077,2.6083,2.6126,2.6126,2.6127,2.6155,2.6154,2.6196,2.6156,2.6144,2.6152,2.6151,2.6184,2.6187,2.6198,2.6249,2.6251,2.621,2.6212,2.6213,2.6214,0,0,0,0,0,0,0,2.6074,2.6081,2.6144,2.6127,2.6127,2.6125,2.6129,2.6162,2.6171,2.6145,2.6144,2.6149,2.6184,2.6195,2.6199,2.6251,2.621,2.6212,2.6214,2.6215,2.6344,2.6346,0,0,0,0,0,0,2.6071,2.6079,2.6143,2.6145,2.6098,2.6127,2.6132,2.6148,2.6171,2.6173,2.615,2.6148,2.6191,2.6196,2.6201,2.6258,2.6213,2.6216,2.6218,2.6342,2.6344,2.6346,0,0,0,0,0,0,2.6069,2.6077,2.6141,2.6112,2.612,2.613,2.6148,2.6149,2.6161,2.6175,2.6177,2.616,2.619,2.6196,2.6236,2.6259,2.6217,2.622,2.6341,2.6343,2.6345,2.6372,0,0,0,0,0,0,2.6067,2.6076,2.6093,2.6112,2.6121,2.6175,2.6149,2.6151,2.6166,2.6164,2.6185,2.6187,2.6189,2.6231,2.6239,2.6262,2.6222,2.6339,2.6342,2.6344,2.6369,2.6375,2.638,0,0,0,0,0,2.6064,2.6099,2.6094,2.6102,2.6143,2.6176,2.6181,2.6183,2.6168,2.6185,2.6195,2.6186,2.6255,2.6235,2.6244,2.6269,2.6337,2.6341,2.6344,2.6366,2.6373,2.638,0,0,0,0,0,0,2.6083,2.6102,2.6096,2.6139,2.6156,2.6173,2.6196,2.619,2.6212,2.6209,2.6211,2.6216,2.6257,2.6267,2.6244,2.6316,2.6294,2.6299,2.6308,2.6315,2.632,2.6317,2.6225,0,0,0,0,0,2.6092,2.6117,2.6132,2.6168,2.6177,2.6185,2.62,2.6199,2.6218,2.6225,2.6237,2.6256,2.6282,2.6299,2.6323,2.637,2.6375,2.6391,2.6397,2.6401,2.6406,2.6434,2.6441,2.6358,2.6358,2.6358,0,0,2.6111,2.6125,2.614,2.6172,2.6186,2.6213,2.6191,2.622,2.6241,2.6229,2.6268,2.6277,2.6298,2.6342,2.6362,2.6351,2.643,2.6406,2.6409,2.6412,2.6438,2.6446,2.6453,2.636,2.636,2.636,0,0,2.616,2.6172,2.6204,2.6218,2.6239,2.6244,2.6252,2.6271,2.6277,2.6315,2.6308,2.6332,2.6376,2.6392,2.6406,2.6463,2.6456,2.6471,2.6499,2.6526,2.6533,2.6538,2.656,2.6568,2.6475,2.6475,2.6475,0,2.6182,2.6221,2.6221,2.6252,2.6267,2.6258,2.6291,2.6305,2.6333,2.6344,2.6331,2.6388,2.6401,2.6449,2.6463,2.6474,2.6484,2.6468,2.6531,2.6537,2.6543,2.6564,2.6572,2.6477,2.6477,2.6477,2.6477,0,2.6247,2.6275,2.6299,2.6326,2.6343,2.6375,2.6381,2.6399,2.6398,2.6405,2.6445,2.6461,2.6489,2.65,2.6499,2.6549,2.6542,2.6531,2.6509,2.6553,2.6572,2.658,2.648,2.6479,2.6478,2.6478,0,0,2.6309,2.6337,2.6346,2.6358,2.6381,2.6403,2.6435,2.6462,2.6479,2.6498,2.6526,2.6564,2.6554,2.657,2.6571,2.6594,2.664,2.658,2.658,2.6592,2.6697,2.6707,2.6716,2.6635,2.6637,2.6638,2.6696,0,2.6361,2.6416,2.6418,2.6469,2.6496,2.6488,2.6516,2.6534,2.6542,2.6566,2.6575,2.6603,2.6587,2.6596,2.6619,2.6629,2.6661,2.6625,2.6663,2.6664,2.6658,2.6726,2.6735,2.6789,2.6704,2.6705,2.6706,0,2.6428,2.6451,2.6504,2.6525,2.6536,2.6561,2.6587,2.661,2.663,2.6635,2.6653,2.6651,2.6685,2.6661,2.6709,2.6685,2.67,2.6708,2.671,2.6714,2.6688,2.6733,2.6806,2.6815,2.6718,2.6717,2.6716,0,2.647,2.6513,2.6551,2.6562,2.6586,2.6605,2.6616,2.6635,2.6652,2.6675,2.6686,2.6713,2.6728,2.675,2.6755,2.6737,2.6803,2.678,2.6809,2.6809,2.6824,2.6823,2.6902,2.6832,2.6832,2.6832,2.6832,0,2.6528,2.6561,2.657,2.6594,2.6632,2.6634,2.6672,2.6682,2.6699,2.6725,2.6721,2.6745,2.6751,2.6777,2.6782,2.6822,2.6828,2.6833,2.6834,2.6834,2.6834,2.6845,2.6842,2.6834,2.6833,2.6833,2.6833,0,2.6581,2.6588,2.6629,2.6649,2.6655,2.6682,2.67,2.6723,2.673,2.6764,2.6772,2.6784,2.6815,2.6822,2.6859,2.6862,2.691,2.6907,2.6903,2.6903,2.6932,2.693,2.7021,2.7034,2.6955,2.6956,2.6957,0,2.6618,2.6644,2.6666,2.6684,2.6696,2.6723,2.6741,2.6744,2.6763,2.6789,2.681,2.684,2.6865,2.6915,2.6927,2.6956,2.6954,2.6984,2.6958,2.6958,2.6956,2.6955,2.6958,2.699,2.699,2.6991,2.6992,0,2.6683,2.6686,2.6711,2.6738,2.6759,2.678,2.6801,2.6815,2.6822,2.6844,2.6875,2.6894,2.6932,2.6963,2.6992,2.7004,2.7,2.7,2.7008,2.7009,2.7006,2.7009,2.6918,2.6998,2.6997,2.6997,2.6996,2.6996,2.673,2.6754,2.6774,2.6802,2.6818,2.6838,2.6861,2.6872,2.6898,2.6929,2.693,2.6965,2.6986,2.7024,2.7039,2.7067,2.7058,2.7069,2.7073,2.7076,2.7079,2.7001,2.7072,2.7072,2.7072,2.7071,2.7071,0,2.6797,2.681,2.6836,2.6865,2.6888,2.6881,2.6904,2.6924,2.6954,2.6974,2.6999,2.7036,2.7066,2.7081,2.7111,2.7131,2.713,2.7139,2.7138,2.7141,2.7085,2.7075,2.714,2.714,2.714,2.714,2.714,2.7139,2.6834,2.6874,2.6879,2.6927,2.6939,2.6973,2.6987,2.7005,2.7022,2.7063,2.7088,2.7098,2.7116,2.7148,2.7176,2.718,2.7192,2.7202,2.7205,2.7152,2.7145,2.7139,2.7129,2.7205,2.7205,2.726,2.726,2.7261]},{"header":{"parameterUnit":"m.s-1","parameterCategory":1,"la1":30.2991,"la2":30.254,"lo1":-89.0895,"lo2":-89.0444,"dy":0.0017,"dx":0.0017,"nx":28,"ny":28,"refTime":"2023-04-26T15:00:00:Z","depth":0,"parameterNumber":3,"parameterNumberName":"V-component_of_WINDS"},"data":[0,0,0,0,0,0,0,0,0,0,0,0,0,0,0,0,0,0,0,0,0,0,0,0,0,0,0,0,0,0,0,0,0,0,0,0,0,0,0,0,0,0,0,0,0,0,0,0,0,0,0,0,0,0,0,0,0,0,0.1819,0.182,0,0.1906,0.1907,0.1908,0.1929,0.1928,0.1928,0.1927,0.2015,0.2018,0.2021,0,0,0,0,0,0,0,0,0,0,0,0,0,0.167,0.1673,0.1819,0.182,0.1821,0.1906,0.1907,0.1908,0.1929,0.1928,0.1928,0.1927,0.2014,0.2018,0.2021,0,0,0,0,0,0,0,0,0,0,0,0,0,0.1743,0.1673,0.1819,0.1842,0.1845,0.1905,0.1907,0.1908,0.1929,0.1928,0.1928,0.1927,0.2013,0.2017,0.2022,0.2065,0,0,0.2035,0.2037,0,0,0,0,0,0,0,0,0.1739,0.1749,0.1837,0.184,0.1844,0.1906,0.1886,0.1961,0.1929,0.1897,0.1927,0.1926,0.1979,0.1986,0.2004,0.2069,0.2073,0.2035,0.2038,0.2039,0.2041,0,0,0,0,0,0,0,0.1734,0.1745,0.1853,0.1839,0.1843,0.1847,0.1857,0.1901,0.1942,0.19,0.1902,0.1912,0.1981,0.2,0.2007,0.2074,0.2035,0.2039,0.2041,0.2043,0.2176,0.2177,0,0,0,0,0,0,0.1725,0.1741,0.185,0.1856,0.1788,0.1851,0.1861,0.1887,0.1942,0.1949,0.1912,0.1912,0.1993,0.2002,0.201,0.2063,0.2039,0.2043,0.2046,0.2175,0.2176,0.2177,0,0,0,0,0,0,0.1722,0.1735,0.1847,0.1799,0.1814,0.1854,0.1882,0.1889,0.1908,0.1951,0.1958,0.1925,0.1993,0.2004,0.2051,0.2066,0.2045,0.2049,0.2174,0.2176,0.2177,0.217,0,0,0,0,0,0,0.1718,0.1733,0.1751,0.1799,0.1816,0.1887,0.1883,0.1891,0.1916,0.1917,0.1964,0.1971,0.1993,0.2044,0.2055,0.2072,0.2053,0.2173,0.2175,0.2176,0.2169,0.2171,0.2173,0,0,0,0,0,0.1712,0.1746,0.1752,0.1765,0.1839,0.1888,0.1897,0.1922,0.1917,0.1934,0.1961,0.197,0.2063,0.2049,0.2061,0.2079,0.2172,0.2174,0.2176,0.2168,0.2171,0.2173,0,0,0,0,0,0,0.1698,0.1753,0.176,0.181,0.1844,0.1891,0.1914,0.1924,0.196,0.196,0.1988,0.1999,0.2043,0.2066,0.205,0.2123,0.2117,0.2122,0.2107,0.2109,0.2111,0.2105,0.2056,0,0,0,0,0,0.1701,0.1737,0.1782,0.1822,0.1839,0.1873,0.1896,0.1912,0.1948,0.1963,0.1993,0.2028,0.2065,0.2088,0.2125,0.2172,0.2182,0.2191,0.2193,0.2194,0.2198,0.2223,0.2227,0.2185,0.2185,0.2184,0,0,0.1708,0.1741,0.1762,0.182,0.1849,0.1884,0.1886,0.1924,0.195,0.1968,0.2014,0.2038,0.2078,0.2125,0.2147,0.2145,0.2211,0.2197,0.2198,0.2201,0.2225,0.2229,0.2233,0.2186,0.2186,0.2186,0,0,0.1737,0.1767,0.1803,0.1831,0.1873,0.1896,0.1904,0.195,0.1966,0.2013,0.2026,0.2058,0.2121,0.2149,0.2171,0.2209,0.2218,0.222,0.223,0.2254,0.2257,0.2261,0.2273,0.2277,0.2224,0.2224,0.2224,0,0.1739,0.1794,0.182,0.1857,0.1881,0.1899,0.1935,0.1961,0.2013,0.2029,0.2026,0.2105,0.2133,0.2186,0.2195,0.2213,0.2223,0.2215,0.2255,0.2258,0.2262,0.2274,0.2278,0.2224,0.2224,0.2224,0.2224,0,0.1794,0.1832,0.1855,0.1905,0.1932,0.1968,0.1999,0.2023,0.2036,0.2058,0.2104,0.2139,0.2182,0.2196,0.2209,0.225,0.2247,0.2249,0.2244,0.2265,0.2277,0.2282,0.2224,0.2224,0.2224,0.2224,0,0,0.1818,0.188,0.1889,0.1911,0.1958,0.1988,0.2024,0.2066,0.2085,0.2121,0.2151,0.2203,0.2205,0.223,0.2247,0.2268,0.2294,0.2267,0.2269,0.227,0.234,0.2337,0.2342,0.23,0.2301,0.2302,0.2336,0,0.1853,0.1919,0.1942,0.1996,0.203,0.2047,0.2078,0.211,0.2132,0.2164,0.2187,0.2223,0.2224,0.2239,0.2261,0.2286,0.2308,0.2284,0.2328,0.2329,0.2317,0.2349,0.2347,0.2377,0.2341,0.2342,0.2342,0,0.1902,0.1937,0.1995,0.2037,0.2052,0.208,0.2119,0.215,0.2186,0.22,0.2227,0.2242,0.2279,0.2271,0.2323,0.2306,0.2325,0.234,0.2341,0.2346,0.2337,0.2354,0.2388,0.2392,0.235,0.2349,0.2349,0,0.1912,0.1974,0.2016,0.2035,0.2085,0.2104,0.2126,0.2161,0.2184,0.2219,0.2234,0.2272,0.2292,0.2321,0.2345,0.2337,0.2394,0.2388,0.2405,0.2405,0.2417,0.2415,0.2454,0.243,0.243,0.243,0.2429,0,0.1948,0.1982,0.2021,0.2047,0.2085,0.2111,0.2148,0.2171,0.2202,0.2231,0.2248,0.2276,0.2306,0.2337,0.2356,0.2394,0.2404,0.2416,0.242,0.2414,0.2412,0.2426,0.2425,0.2431,0.243,0.243,0.243,0,0.1966,0.1994,0.2041,0.2084,0.2096,0.2122,0.2158,0.2184,0.2205,0.2242,0.2253,0.2287,0.2324,0.2351,0.2399,0.2411,0.2452,0.2457,0.244,0.2442,0.2458,0.2456,0.2506,0.2514,0.2485,0.2485,0.2486,0,0.1987,0.2014,0.206,0.2081,0.2102,0.2136,0.216,0.2186,0.221,0.2252,0.2271,0.231,0.2342,0.24,0.2428,0.2465,0.247,0.2485,0.2476,0.2468,0.2469,0.2467,0.2469,0.2486,0.2487,0.2487,0.2487,0,0.2021,0.2033,0.2066,0.2104,0.2132,0.2163,0.2194,0.221,0.2241,0.2267,0.2305,0.233,0.2378,0.2416,0.2454,0.2476,0.2486,0.249,0.2495,0.2489,0.2478,0.2483,0.2443,0.2488,0.2488,0.2488,0.2488,0.2488,0.2041,0.2064,0.21,0.2136,0.2162,0.2191,0.2216,0.224,0.2273,0.2314,0.2328,0.2367,0.2401,0.2454,0.2476,0.2506,0.2505,0.2514,0.2516,0.2518,0.2517,0.2473,0.2513,0.2513,0.2513,0.2513,0.2513,0,0.2074,0.2098,0.2131,0.2173,0.2202,0.2209,0.2244,0.2266,0.2301,0.2332,0.2362,0.2405,0.2441,0.2472,0.2509,0.2527,0.2533,0.2536,0.2535,0.2539,0.2516,0.2507,0.2531,0.2531,0.2531,0.2531,0.2531,0.2531,0.2095,0.2135,0.2151,0.2204,0.2227,0.2265,0.2284,0.231,0.2335,0.2382,0.2412,0.2432,0.2462,0.2501,0.2534,0.2542,0.2554,0.2556,0.2565,0.2543,0.2541,0.2539,0.253,0.2559,0.2559,0.2586,0.2586,0.2587]}]]